COSMOS 1275 DEB

Satellite information

Favourite Embed

Satellite Type and Status

DEBRISIN ORBIT

Key statistics

Satellite COSMOS 1275 DEB at a glance.

Uptime

16168

Days in orbit

Revolutions

≈ 14.4

Per day

Orbit

LEO

Low Earth Orbit

Inclination

82.9

Latest

Satellite identification and parameters

Extended collection of information and parameters for COSMOS 1275 DEB.

Object identification

Identified? True

Debris? True

Object name: COSMOS 1275 DEB

International designator: 1981-053CA

Object number (NORAD): 12733

Object ID (CCSDS): 12733

Country: COMMONWEALTH OF INDEPENDENT STATES (CIS)

Current information (Y/N): Y

RCS size: SMALL

Orbital parameters

Period: 100.256 minutes

Inclination: 82.8588 deg

SMA: 7148.829 km

Apoapsis: 786.126 km

Periapsis: 755.261 km

RAAN: 140.6805 deg

Eccentricy: 0.00215879

Argument of periapsis: 51.8602 deg

Mean anomaly: 308.4529 deg

Mean motion: 14.36317472 rev/day

Mean motion (dot): 0.00004609 rev/day2

B* drag term: 0.001566612 1/REarth

Two-line elements (TLE)

Creation date: Sept. 8, 2025, 9:49 a.m.

Reference frame: TEME

Reference center: EARTH

Epoch: Sept. 8, 2025, 2:42 a.m. UTC

TLE line 0: 0 COSMOS 1275 DEB

TLE line 1: 1 12733U 81053CA 25251.11317279 .00004609 00000-0 15666-2 0 9994

TLE line 2: 2 12733 82.8588 140.6805 0021588 51.8602 308.4529 14.36317472255941

Live tracking on map

Real-time ground track for satellite COSMOS 1275 DEB.

In-orbit conjunctions

A list of the most updated potential collisions computed for object COSMOS 1275 DEB.

Target Orbit TCA Probability of collision Miss distance Type
FENGYUN 1C DEB SSO 2025-07-29 19:32:13 0.0007985229 67.0 (m) DEBRIS
COSMOS 990 LEO 2025-01-31 03:10:39 0.0005018818 88.0 (m) PAYLOAD
COSMOS 1867 COOLANT LEO 2024-10-24 13:58:57 0.0001083612 127.0 (m) DEBRIS
NOAA 8 SSO 2024-06-26 16:15:44 0.0001505409 108.0 (m) PAYLOAD

Associated space launch

Navigation satellite providing location information for the Tsiklon-B navigation system

COSMOS 1275 DEB was lifted into orbit during the mission ‘Kosmos-3M | Parus 27’, on board a Kosmos-3M space rocket.

The launch took place on June 4, 1981, 3:41 p.m. from 132/2.

For more information about the launch, click the button.

Launch to space Kosmos-3M | Parus 27
Kosmos-3M | Parus 27

Agency: N/A

Status: Launch Successful

Launch date: June 4, 1981, 3:41 p.m. UTC

Rocket: Kosmos-3M

Launch pad: 132/2

Location: Plesetsk Cosmodrome, Russian Federation

...

Latest news about this satellite

There are no fresh news available about this satellite. Check back as we update our databases every day.


Newsletter sign-up

Weekly statistics, charts and insights to help you stay on top of the space industry.